User: anonymous   Login
Location: Splawn
(30.9202°N, 96.9858°W)
Time: 13:22:23
(UTC+00:00)
Language:

Transit 2A - Orbit

View from above orbital plane
View from above orbital plane
View from above satellite
View from above satellite

Ground track
Ground track

The orbit data is extracted from the following two-line orbital elements,

1    45U 60007A   20058.87565823 -.00000041 +00000-0 +16517-4 0  9991
2    45 066.6953 312.3295 0251511 034.7121 327.0103 14.33668246049983
Epoch (UTC): 27 February 2020 21:00:56
Eccentricity: 0.0251511
inclination: 66.6953°
perigee height: 599 km
apogee height: 959 km
right ascension of ascending node: 312.3295°
argument of perigee: 34.7121°
revolutions per day: 14.33668246
mean anomaly at epoch: 327.0103°
orbit number at epoch: 4998

The dashed part of the orbit path shows where the satellite is in the earth's shadow,  

DLR